Flag for China Weather past 2 weeks in Shanghai, Shanghai Municipality, China

73 °F

Scattered clouds.

Feels Like: 77 °F
Forecast: 68 / 72 °F
Wind: 15 mph from Southeast

Location: Shanghai Hongqiao Airport

Current Time: Oct 7, 2015 at 12:37:53 PM

Latest Report: Oct 7, 2015 at 12:00 PM

Visibility: N/A

Pressure: 29.95 "Hg

Humidity: 57%

Dew point: 57 °F

Location of ShanghaiLocation

Historic Weather in Shanghai — Graph


Shanghai temperature yesterday

Maximum temperature yesterday: 77 °F (at 1:30 PM)
Minimum temperature yesterday: 66 °F (at 12:00 AM)
Average temperature yesterday: 72 °F

Past Weeks' High & Low Weather Summary

High86 °F (Sep 30, 2:30 PM)100% (Sep 23, 4:30 AM)30.24 "Hg (Sep 23, 4:30 AM)
Low59 °F (Oct 2, 5:00 AM)39% (Oct 2, 1:00 PM)29.68 "Hg (Sep 23, 2:30 PM)
Average74 °F77%29.96 "Hg
* Reported Sep 22 11:00 AM — Oct 7 11:30 AM, Shanghai, Weather by CustomWeather, © 2015

Note: Actual official high and low records may vary slightly from our data, if they occured in-between our weather recording intervals... More about our weather records


Shanghai weather history for previous 24 hours

Time TempWeatherWind HumidityBarometerVisibility
11:30 AM
Wed, Oct 7
75 °FScattered clouds.10 mph65%29.98 "HgN/A
11:00 AM73 °FScattered clouds.10 mph69%29.98 "HgN/A
10:30 AM73 °FPassing clouds.13 mph69%30.01 "HgN/A
10:00 AM73 °FSunny.10 mph69%30.01 "Hg10 mi
9:30 AM72 °FLight rain. Clear.10 mph73%30.01 "HgN/A
9:00 AM72 °FLight rain. Clear.10 mph73%30.01 "HgN/A
8:30 AM72 °FSunny.10 mph73%30.01 "Hg10 mi
8:00 AM72 °FSunny.10 mph73%30.01 "Hg10 mi
7:30 AM72 °FSunny.10 mph69%30.01 "Hg10 mi
7:00 AM72 °FSunny.8 mph69%30.01 "Hg10 mi
6:30 AM72 °FSunny.8 mph69%30.01 "Hg10 mi
6:00 AM70 °FPassing clouds.10 mph73%29.98 "HgN/A
5:30 AM72 °FClear.8 mph69%29.98 "Hg10 mi
5:00 AM72 °FClear.8 mph69%29.98 "Hg10 mi
4:30 AM72 °FPassing clouds.8 mph69%29.98 "HgN/A
4:00 AM72 °FClear.8 mph69%29.98 "Hg10 mi
3:30 AM72 °FClear.8 mph69%29.98 "Hg10 mi
3:00 AM72 °FPassing clouds.8 mph69%29.98 "HgN/A
2:30 AM72 °FClear.8 mph69%30.01 "Hg10 mi
2:00 AM72 °FClear.8 mph69%30.01 "Hg10 mi
1:30 AM72 °FClear.8 mph69%30.01 "Hg10 mi
1:00 AM72 °FClear.8 mph73%30.01 "Hg10 mi
12:30 AM72 °FClear.8 mph73%30.04 "Hg10 mi
12:00 AM72 °FClear.8 mph73%30.04 "Hg10 mi
11:30 PM
Tue, Oct 6
72 °FClear.8 mph73%30.04 "Hg10 mi
11:00 PM72 °FPassing clouds.6 mph73%30.04 "HgN/A
10:30 PM72 °FPassing clouds.8 mph73%30.04 "HgN/A
10:00 PM72 °FClear.6 mph73%30.07 "Hg10 mi
9:30 PM72 °FClear.8 mph69%30.07 "Hg10 mi
9:00 PM72 °FClear.6 mph69%30.07 "Hg10 mi
8:30 PM72 °FClear.6 mph69%30.07 "Hg10 mi
8:00 PM72 °FClear.8 mph69%30.07 "Hg10 mi
7:30 PM72 °FPassing clouds.6 mph69%30.07 "HgN/A
7:00 PM73 °FPassing clouds.6 mph65%30.07 "HgN/A
6:30 PM73 °FClear.6 mph69%30.07 "Hg10 mi
6:00 PM73 °FClear.8 mph69%30.04 "Hg10 mi
5:30 PM73 °FSunny.8 mph69%30.07 "Hg10 mi
5:00 PM73 °FSunny.8 mph65%30.04 "Hg10 mi
4:30 PM75 °FSunny.8 mph61%30.04 "Hg10 mi
4:00 PM75 °FPassing clouds.10 mph65%30.04 "HgN/A
3:30 PM75 °FScattered clouds.10 mph65%30.04 "HgN/A
3:00 PM77 °FScattered clouds.10 mph57%30.04 "HgN/A
2:30 PM77 °FScattered clouds.10 mph57%30.04 "HgN/A
2:00 PM75 °FScattered clouds.10 mph61%30.07 "HgN/A
1:30 PM77 °FScattered clouds.10 mph61%30.07 "HgN/A
1:00 PM75 °FScattered clouds.10 mph65%30.09 "HgN/A
12:30 PM75 °FScattered clouds.10 mph65%30.09 "HgN/A
12:00 PM75 °FSunny.8 mph69%30.09 "Hg10 mi
Weather by CustomWeather, © 2015

See weather overviewHow to use our weather pages